EDT,Max TemperatureF,Mean TemperatureF,Min TemperatureF,Max Dew PointF,MeanDew PointF,Min DewpointF,Max Humidity, Mean Humidity, Min Humidity, Max Sea Level PressureIn, Mean Sea Level PressureIn, Min Sea Level PressureIn, Max VisibilityMiles, Mean VisibilityMiles, Min VisibilityMiles, Max Wind SpeedMPH, Mean Wind SpeedMPH, Max Gust SpeedMPH,PrecipitationIn, CloudCover, Events, WindDirDegrees
2014-5-1,41,36,30,41,37,30,100,100,100,,,,0,0,0,56,47,66,0.73,,Fog-Rain,258
2014-5-2,28,26,24,28,27,25,100,100,100,,,,0,0,0,59,45,54,0.27,,Fog-Snow,301
2014-5-3,33,28,23,32,29,23,100,98,87,,,,3,0,0,44,31,51,0.27,7,Fog-Snow,286
2014-5-4,30,26,23,30,27,23,100,100,100,,,,0,0,0,46,33,56,1.05,,Fog-Rain-Snow,298
2014-5-5,28,26,24,28,26,25,100,100,100,,,,0,0,0,46,41,63,0.00,,Fog-Rain-Snow,348
2014-5-6,24,22,21,25,24,21,100,100,100,,,,0,0,0,43,37,52,0.04,,Fog-Snow,342
2014-5-7,30,26,21,25,21,18,100,79,64,,,,0,0,0,39,27,43,0.00,2,Fog,316
2014-5-8,37,32,26,30,19,5,87,60,28,,,,,,,28,21,32,0.00,4,,298
2014-5-9,41,36,30,41,32,12,100,87,44,,,,0,0,0,46,21,54,0.05,8,Fog-Rain,198
2014-5-10,48,44,39,46,42,27,100,91,61,,,,0,0,0,66,45,69,0.60,6,Fog-Rain,252
2014-5-11,41,36,30,32,28,21,100,78,49,,,,0,0,0,62,53,68,0.00,4,Fog,283
2014-5-12,46,40,33,34,28,9,81,64,25,,,,,,,60,43,75,0.02,4,,287
2014-5-13,48,42,37,45,24,5,100,54,17,,,,0,0,0,37,25,,0.01,7,Fog-Rain,293
2014-5-14,55,48,42,52,47,43,100,91,72,,,,0,0,0,41,27,44,0.02,4,Fog,256
2014-5-15,51,50,48,52,50,43,100,98,76,,,,3,0,0,45,31,52,0.07,6,Fog-Rain,208
2014-5-16,48,44,41,48,45,36,100,99,81,,,,1,0,0,58,41,66,1.19,4,Fog-Rain,148
2014-5-17,46,39,32,46,40,30,100,93,65,,,,5,1,0,56,36,72,1.34,5,Fog-Rain,206
2014-5-18,35,30,26,32,28,19,100,85,74,,,,3,1,0,39,11,39,0.00,5,Fog,308
2014-5-19,30,27,24,30,27,19,100,97,80,,,,0,0,0,67,42,75,0.20,3,Fog-Snow,337
2014-5-20,37,32,28,34,31,25,100,94,80,,,,0,0,0,55,45,68,0.00,5,Fog,340
2014-5-21,46,40,33,39,35,30,100,85,71,,,,20,4,0,39,22,45,0.00,6,Fog,295
2014-5-22,44,40,35,45,37,34,100,96,81,,,,0,0,0,26,14,23,0.03,4,Fog-Rain,177
2014-5-23,37,36,35,37,36,36,100,100,100,,,,0,0,0,17,12,,0.35,,Fog-Rain,121
2014-5-24,42,38,33,37,35,32,100,95,70,,,,10,2,0,22,13,29,0.23,7,Fog-Rain,20
2014-5-25,46,40,33,39,36,34,100,88,66,,,,20,2,0,48,23,52,0.03,6,Fog-Rain,306
2014-5-26,44,40,37,45,42,37,100,99,93,,,,0,0,0,68,54,76,0.51,7,Fog-Rain,294
2014-5-27,46,42,37,45,42,37,100,99,93,,,,20,2,0,43,28,48,0.90,8,Fog-Rain-Thunderstorm,272
2014-5-28,42,35,28,43,33,21,100,95,74,,,,0,0,0,38,14,,0.02,1,Fog-Rain,63
2014-5-29,44,36,28,30,21,-4,80,52,18,,,,,,,28,18,17,0.00,3,,141
2014-5-30,41,36,32,37,33,23,100,86,60,,,,6,2,0,34,12,39,0.30,6,Fog-Rain-Thunderstorm,321
2014-5-31,39,36,32,37,32,27,100,89,70,,,,0,0,0,34,24,29,0.09,2,Fog-Rain,37